DW0268 Weather Reports


Display with metric or nautical units.
time (UTC)temp
F
wind
direction
speed
MPH
gust
MPH
rain 1hr
in
rain 24hr
in
rain mn
in
humidity
%
barometer
mb
20260508021559 58 138 3.0 5.0 0.00 0.00 0.00 77 1018.5
20260508020059 59 137 2.0 4.0 0.00 0.00 0.00 75 1018.4
20260508014557 59 133 3.0 5.0 0.00 0.00 0.00 72 1018.1
20260508013056 60 161 2.0 3.0 0.00 0.00 0.00 71 1018.2
20260508011605 60 163 3.0 5.0 0.00 0.00 0.00 69 1018.2
20260508010054 62 155 2.0 3.0 0.00 0.00 0.00 65 1018.2
20260508004555 63 142 3.0 4.0 0.00 0.00 0.00 60 1018.1
20260508003050 64 140 2.0 4.0 0.00 0.00 0.00 57 1018.0
20260508001550 65 144 1.0 4.0 0.00 0.00 0.00 52 1018.0
20260508000049 65 136 2.0 4.0 0.00 0.00 0.00 52 1018.0
20260507234558 65 111 4.0 9.0 0.00 0.00 0.00 50 1017.9
20260507233047 66 148 2.0 5.0 0.00 0.00 0.00 50 1017.9
20260507231551 66 121 2.0 7.0 0.00 0.00 0.00 49 1017.9
20260507230050 67 134 3.0 7.0 0.00 0.00 0.00 49 1017.9
20260507224545 67 57 2.0 5.0 0.00 0.00 0.00 49 1018.2
20260507223045 67 66 0.0 4.0 0.00 0.00 0.00 48 1018.2
20260507221541 67 156 1.0 3.0 0.00 0.00 0.00 50 1018.2
20260507220039 66 186 5.0 9.0 0.00 0.00 0.00 47 1018.3
20260507214538 67 179 2.0 6.0 0.00 0.00 0.00 49 1018.3
20260507213036 66 153 1.0 8.0 0.00 0.00 0.00 48 1018.4
20260507211535 66 66 2.0 8.0 0.00 0.00 0.00 47 1018.4
20260507210034 66 76 2.0 6.0 0.00 0.00 0.00 49 1018.5
20260507204531 66 86 0.0 7.0 0.00 0.00 0.00 45 1018.6
20260507203029 65 115 1.0 4.0 0.00 0.00 0.00 45 1018.7
20260507201530 64 348 2.0 5.0 0.00 0.00 0.00 46 1018.8
20260507200041 65 227 2.0 4.0 0.00 0.00 0.00 45 1019.0
20260507194525 65 360 4.0 9.0 0.00 0.00 0.00 48 1019.2
20260507193023 64 86 5.0 9.0 0.00 0.00 0.00 47 1019.3
20260507191522 64 84 3.0 9.0 0.00 0.00 0.00 49 1019.4
20260507190022 64 76 4.0 8.0 0.00 0.00 0.00 46 1019.4
20260507184519 64 65 4.0 9.0 0.00 0.00 0.00 49 1019.5
20260507183032 63 18 1.0 11.0 0.00 0.00 0.00 53 1019.6
20260507181516 63 296 2.0 5.0 0.00 0.00 0.00 50 1019.7
20260507180020 63 348 1.0 9.0 0.00 0.00 0.00 50 1020.1
20260507174515 62 355 5.0 11.0 0.00 0.00 0.00 55 1020.3
20260507173012 62 21 1.0 9.0 0.00 0.00 0.00 56 1020.7
20260507171511 62 24 2.0 8.0 0.00 0.00 0.00 58 1020.7
20260507170010 60 292 3.0 11.0 0.00 0.00 0.00 58 1020.8
20260507164509 61 29 2.0 10.0 0.00 0.00 0.00 61 1020.8
20260507163008 61 343 2.0 5.0 0.00 0.00 0.00 59 1021.0
20260507161508 61 63 3.0 8.0 0.00 0.00 0.00 58 1021.0
20260507160005 60 53 3.0 8.0 0.00 0.00 0.00 65 1021.2
20260507154506 61 44 2.0 8.0 0.00 0.00 0.00 63 1021.1
20260507153002 60 32 1.0 5.0 0.00 0.00 0.00 65 1021.3
20260507151558 60 40 2.0 8.0 0.00 0.00 0.00 68 1021.4
20260507150103 59 71 4.0 9.0 0.00 0.00 0.00 69 1021.6
20260507144553 58 55 1.0 6.0 0.00 0.00 0.00 70 1021.5
20260507143054 58 91 4.0 9.0 0.00 0.00 0.00 70 1021.2
20260507141552 57 60 4.0 8.0 0.00 0.00 0.00 72 1021.6
20260507140044 56 68 4.0 11.0 0.00 0.00 0.00 74 1021.4
20260507134551 55 61 5.0 10.0 0.00 0.00 0.00 77 1021.5
20260507133039 54 81 2.0 6.0 0.00 0.00 0.00 80 1021.5
20260507131539 53 44 2.0 6.0 0.00 0.00 0.00 81 1021.3
20260507130035 52 5 2.0 9.0 0.00 0.00 0.00 83 1021.2
20260507124534 51 38 1.0 6.0 0.00 0.00 0.00 86 1020.8
20260507123036 50 59 4.0 11.0 0.00 0.00 0.00 87 1020.9
20260507121531 49 360 5.0 9.0 0.00 0.00 0.00 89 1020.7
20260507120030 48 355 4.0 8.0 0.00 0.00 0.00 90 1020.6
20260507114533 48 355 4.0 6.0 0.00 0.00 0.00 90 1020.6
20260507113027 47 355 2.0 5.0 0.00 0.00 0.00 90 1020.4
20260507111525 47 355 3.0 6.0 0.00 0.00 0.00 90 1020.1
20260507110024 47 355 3.0 6.0 0.00 0.00 0.00 90 1019.9
20260507104524 47 355 3.0 5.0 0.00 0.00 0.00 90 1019.9
20260507103023 47 360 2.0 5.0 0.00 0.00 0.00 90 1019.8
20260507101520 48 355 1.0 5.0 0.00 0.00 0.00 90 1019.9
20260507100014 48 355 1.0 5.0 0.00 0.00 0.00 89 1019.8
20260507094512 49 345 3.0 6.0 0.00 0.00 0.00 89 1019.6
20260507093010 49 350 4.0 6.0 0.00 0.00 0.00 89 1019.4
20260507091508 49 344 3.0 6.0 0.00 0.00 0.00 89 1019.6
20260507090007 49 347 5.0 8.0 0.00 0.00 0.00 89 1019.3
20260507084504 49 334 4.0 6.0 0.00 0.00 0.00 89 1019.2
20260507083102 50 344 2.0 6.0 0.00 0.00 0.00 89 1019.2
20260507081604 50 350 2.0 4.0 0.00 0.00 0.00 88 1019.1
20260507080059 50 350 2.0 4.0 0.00 0.00 0.00 88 1019.0
20260507074559 51 10 2.0 5.0 0.00 0.00 0.00 89 1019.1
20260507073059 51 346 2.0 4.0 0.00 0.00 0.00 88 1019.0
20260507071557 51 355 2.0 4.0 0.00 0.00 0.00 88 1019.1
20260507070101 52 355 2.0 5.0 0.00 0.00 0.00 88 1019.1
20260507064550 52 5 2.0 4.0 0.00 0.01 0.00 89 1019.1
20260507063050 53 11 1.0 3.0 0.00 0.01 0.00 89 1019.2
20260507061546 53 355 1.0 3.0 0.00 0.01 0.00 89 1019.2
20260507060056 53 360 1.0 4.0 0.00 0.01 0.00 88 1019.2
20260507054547 54 340 2.0 5.0 0.00 0.02 0.00 88 1019.1
20260507053048 54 348 2.0 4.0 0.00 0.02 0.00 87 1019.3
20260507051542 55 27 1.0 3.0 0.00 0.02 0.00 85 1019.2
20260507050041 55 31 0.0 1.0 0.00 0.02 0.00 84 1019.3
20260507044536 55 33 0.0 2.0 0.00 0.07 0.02 84 1018.8
20260507043035 55 33 0.0 2.0 0.00 0.07 0.02 85 1019.0
20260507041537 55 28 0.0 3.0 0.00 0.07 0.02 85 1018.9
20260507040035 56 42 0.0 2.0 0.00 0.07 0.02 83 1019.1
20260507034551 56 40 1.0 3.0 0.00 0.20 0.02 82 1019.0
20260507033039 56 28 0.0 2.0 0.00 0.20 0.02 82 1019.0
20260507031534 56 14 0.0 3.0 0.00 0.20 0.02 83 1019.2
20260507030035 56 19 2.0 8.0 0.00 0.20 0.02 86 1018.7
20260507024547 56 9 1.0 4.0 0.00 0.20 0.02 87 1019.0
20260507023030 56 20 1.0 4.0 0.00 0.20 0.02 87 1018.7